Bonaire, Netherlands

9:48 PM AST on May 22, 2017 (GMT -0400)
Flamingo

Weather History for TNCB - December, 2013

Change the Weather History Date:

Sunday, December 15, 2013

  Actual Average Record
Temperature  
Mean Temperature 80 °F -  
Max Temperature 82 °F 84 °F 89 °F (2006)
Min Temperature 77 °F 77 °F 75 °F (2010)
Cooling Degree Days 14    
Growing Degree Days 30 (Base 50)    
Moisture  
Dew Point 75 °F    
Average Humidity 84    
Maximum Humidity 100    
Minimum Humidity 74    
Precipitation  
Precipitation 0.00 in - - ()
Sea Level Pressure  
Sea Level Pressure 29.90 in    
Wind  
Wind Speed 17 mph ()    
Max Wind Speed 23 mph    
Max Gust Speed -    
Visibility 6.2 miles    
Events Rain    
Averages and records for this station are not official NWS values.
T = Trace of Precipitation, MM = Missing Value Source: Averaged Metar Reports

Daily Weather History Graph

Daily Weather History Graph

Search for Another Location

Airport or City:

Trip Planner

Search our weather history database for the weather conditions in past years. The results will help you decide how hot, cold, wet, or windy it might be!

Date:

Astronomy

Dec. 15, 2013 Rise Set
Actual Time 6:45 AM AST 6:11 PM AST
Civil Twilight 6:22 AM AST 6:33 PM AST
Nautical Twilight 5:56 AM AST 7:00 PM AST
Astronomical Twilight 5:30 AM AST 7:26 PM AST
Moon 5:01 PM AST (12/15) 5:11 AM AST (12/15)
Length of Visible Light 12h 11m
Length of Day
11h 25m
Waxing Gibbous, 97% of the Moon is Illuminated
Dec 15
Waxing Gibbous
Dec 17
Full
Dec 25
Last Quarter
Jan 1
New
Jan 7
First Quarter

Hourly Weather History & Observations

Time (AST) Temp. Heat Index Dew Point Humidity Pressure Visibility Wind Dir Wind Speed Gust Speed Precip Events Conditions
12:00 AM 80.6 °F 86.2 °F 75.2 °F 84% 29.92 in - East 20.7 mph - N/A   Unknown
1:00 AM 80.6 °F 85.4 °F 73.4 °F 79% 29.92 in - ENE 20.7 mph - N/A   Unknown
2:00 AM 80.6 °F 85.4 °F 73.4 °F 79% 29.89 in - ENE 20.7 mph - N/A   Unknown
3:00 AM 80.6 °F 84.6 °F 71.6 °F 74% 29.86 in - East 19.6 mph - N/A   Unknown
4:00 AM 80.6 °F 85.4 °F 73.4 °F 79% 29.86 in - East 17.3 mph - N/A   Unknown
5:00 AM 80.6 °F 85.4 °F 73.4 °F 79% 29.86 in - East 15.0 mph - N/A   Unknown
6:00 AM 80.6 °F 85.4 °F 73.4 °F 79% 29.89 in - East 12.7 mph - N/A   Unknown
7:00 AM 78.8 °F - 77.0 °F 94% 29.89 in - ENE 10.4 mph - N/A   Unknown
8:00 AM 77.0 °F - 77.0 °F 100% 29.95 in 6.2 mi East 12.7 mph - N/A   Mostly Cloudy
9:00 AM 78.8 °F - 77.0 °F 94% 29.95 in 6.2 mi ENE 13.8 mph - N/A   Scattered Clouds
10:00 AM 82.4 °F 92.4 °F 78.8 °F 89% 29.98 in 6.2 mi ENE 20.7 mph - N/A   Scattered Clouds
11:00 AM 80.6 °F 87.1 °F 77.0 °F 89% 29.95 in 6.2 mi ENE 23.0 mph - N/A Rain Rain
12:00 PM 82.4 °F 90.9 °F 77.0 °F 84% 29.95 in - East 23.0 mph - N/A   Unknown
12:55 PM 82.4 °F 90.9 °F 77.0 °F 84% 29.92 in 6.2 mi ENE 23.0 mph - N/A   Scattered Clouds
1:55 PM 82.4 °F 89.5 °F 75.2 °F 79% 29.89 in - East 21.9 mph - N/A   Unknown
2:55 PM 78.8 °F - 75.2 °F 89% 29.86 in 6.2 mi East 21.9 mph - N/A   Mostly Cloudy
3:55 PM 82.4 °F 88.2 °F 73.4 °F 74% 29.86 in 6.2 mi East 23.0 mph - N/A   Scattered Clouds
4:55 PM 82.4 °F 89.5 °F 75.2 °F 79% 29.86 in 6.2 mi ENE 20.7 mph - N/A   Partly Cloudy
5:55 PM 80.6 °F 86.2 °F 75.2 °F 84% 29.86 in 6.2 mi ENE 18.4 mph - N/A   Scattered Clouds
6:55 PM 80.6 °F 85.4 °F 73.4 °F 79% 29.86 in - East 18.4 mph - N/A   Unknown
7:55 PM 80.6 °F 86.2 °F 75.2 °F 84% 29.89 in - East 17.3 mph - N/A   Unknown
8:55 PM 80.6 °F 86.2 °F 75.2 °F 84% 29.92 in 6.2 mi East 17.3 mph - N/A   Scattered Clouds
10:00 PM 80.6 °F 86.2 °F 75.2 °F 84% 29.95 in - East 18.4 mph - N/A   Unknown
11:00 PM 80.6 °F 86.2 °F 75.2 °F 84% 29.95 in - ENE 16.1 mph - N/A   Unknown